Regional Weather Roundup
Issued by NWS

Home | Current Version | Previous Version | Text Only | Print | Product List | Glossary On
Versions: 1 2 3 4 5 6 7 8 9 10 11 12 13 14 15 16 17 18 19 20 21 22 23 24 25 26 27 28 29 30 31 32 33 34 35 36 37 38 39 40 41 42 43 44 45 46 47 48 49 50
000
ASHW40 PHFO 301843
RWRHI

WEATHER ROUNDUP FOR HAWAII
NATIONAL WEATHER SERVICE HONOLULU HI
800 AM HST FRI SEP 30 2016

THIS IS AN AUTOMATED REPORT THAT HAS NOT BEEN QUALITY CONTROLLED.

NOTE..."FAIR" INDICATES FEW OR NO CLOUDS BELOW 12,000 FEET WITH NO
SIGNIFICANT WEATHER AND/OR OBSTRUCTIONS TO VISIBILITY.

* - THESE SITES REPORT LIMITED FIELDS

HIZ001>004-301900-
KAUAI-NIIHAU-

CITY           SKY/WX    TMP DP  RH WIND       PRES   REMARKS
LIHUE APT      CLOUDY    81  70  69 NE18      30.10R
PORT ALLEN*    NOT AVBL
POIPU*         NOT AVBL
PRINCEVILLE*     N/A     75 N/A N/A E10G17      N/A
KOKOLE POINT*  NOT AVBL
MOLOAA DAIRY*    N/A     75  70  83 E5G13       N/A
WAIMEA HTS*      N/A     79  66  65 E8G15       N/A
PUU OPAE*        N/A     72  64  78 CALM        N/A
PUU LUA*       NOT AVBL
MAKAHA RIDGE*    N/A     73  63  68 CALM        N/A
$$

HIZ005>011-301900-
OAHU-

CITY           SKY/WX    TMP DP  RH WIND       PRES   REMARKS
HONOLULU       MOSUNNY   78  66  66 NE13      30.06R
KALAELOA       SUNNY     81  67  62 NE13G18   30.07R
KANEOHE MCB    MOSUNNY   79  70  74 NE12      30.06R
WHEELER FIELD  FAIR      74  69  82 NE8       30.08R
BELLOWS*         N/A    N/A N/A N/A NE20        N/A
WHEELER*         N/A    N/A N/A N/A NE5         N/A
WAIANAE HARBOR   N/A    N/A N/A N/A NE6G12      N/A
DILLINGHAM*      N/A     88  81  79 MISG        N/A  HX 105
KAHUKU TRN*    NOT AVBL
KAWAILOA*        N/A     72  66  83 E12G20      N/A
KII*             N/A     81  70  69 E18G26      N/A
MAKUA RANGE*   NOT AVBL
OAHU FOREST NW   N/A     72  64  78 E13G33      N/A
SCHOFIELD BRK* NOT AVBL
SCHOFIELD S*   NOT AVBL
WAIANAE VLY*     N/A     73  59  60 NE6G22      N/A
KUAOKALA*        N/A     75  68  78 NE21G28     N/A
HONOULIUULI*   NOT AVBL
MOKUOLOE IS*   NOT AVBL
PALEHUA*         N/A     72  66  83 NE13G25     N/A
WAIAWA PHB*    NOT AVBL
$$

HIZ012>013-301900-
MOLOKAI-

CITY           SKY/WX    TMP DP  RH WIND       PRES   REMARKS
MOLOKAI AIRPT  MOSUNNY   80  69  69 NE14G22   30.08R
KALAUPAPA      NOT AVBL
MAKAPULAPAI*     N/A     81  72  74 E18G25      N/A
MOLOKAI 1*       N/A     75  66  73 SE1G12      N/A
PUU ALII*        N/A     60  60 100 N3G20       N/A
$$

HIZ016-301900-
KAHOOLAWE-

CITY           SKY/WX    TMP DP  RH WIND       PRES   REMARKS
KAHOOLAWE*       N/A     73 N/A N/A E1          N/A
HAKIOAWA*        N/A     77  70  79 MISG      30.47R
HONOKANAIA*      N/A     78  64  60 N10G18    29.97R
KANELOA*         N/A     75  66  73 E14G26      N/A
KEALIALALO*    NOT AVBL
LUA MAKIKA*    NOT AVBL
$$

HIZ014>015-301900-
LANAI-

CITY           SKY/WX    TMP DP  RH WIND       PRES   REMARKS
LANAI CITY     PTSUNNY   74  67  78 NE12      30.11R
LANAI 1*         N/A     72  63  73 NE21G32     N/A
$$

HIZ017>028-301900-
MAUI-

CITY           SKY/WX    TMP DP  RH WIND       PRES   REMARKS
KAHULUI        MOSUNNY   81  69  67 NE14      30.06R
KAPALUA-W MAUI MOSUNNY   77  66  69 NE14      30.06
HANA AIRPORT     N/A     75  72  88 S5        30.11F
HANA*          NOT AVBL
HALEAKALA SUMM   N/A     50   9  18 SE12G24     N/A
MAALAEA BAY*     N/A     81 N/A N/A N26G35      N/A
HALEAKALA*     NOT AVBL
KAUPO GAP*       N/A    N/A N/A N/A W6G33       N/A
KULA 1*          N/A     48  32  53 E5          N/A
$$

HIZ023>026-301900-
BIG ISLAND OF HAWAII COAST AND LOWER SLOPES-

CITY           SKY/WX    TMP DP  RH WIND       PRES   REMARKS
KAILUA KONA    SUNNY     82  68  61 SW6       30.00R
HILO           MOSUNNY   77  69  76 W6        30.07R
HONOKAA*       NOT AVBL
KAWAIHAE MWT*  NOT AVBL
KAWAIHAE*        N/A     82 N/A N/A SW10      29.99S
SOUTH POINT*   NOT AVBL
UPOLU AIRPORT* NOT AVBL
KAMUELA*       PTCLDY    72  61  68 NE26      30.14R
HAKALAU*         N/A     55  53  93 W2          N/A
KALOKO-HONOKO*   N/A     84  70  61 S3          N/A
PALI 2*        NOT AVBL
KEALAKOMO*       N/A     81  66  61 NE18G26     N/A
KAUPULEHU*       N/A     79  63  57 NW7         N/A
KAPAPALA*        N/A     72  63  72 W2          N/A
LOWER KAHUKU*    N/A     63  57  82 NE1G7       N/A
PUHE CS*         N/A     82  61  47 NE7G23      N/A
PUHO CS*         N/A     80  57  45 E3          N/A
PTA KEAMUKU*     N/A     66  57  72 CALM        N/A
WAIKOLOA*        N/A    N/A N/A N/A E22G31      N/A
$$

HIZ027>028-301900-
BIG ISLAND OF HAWAII INTERIOR AND SUMMMITS-

CITY           SKY/WX    TMP DP  RH WIND       PRES   REMARKS
BRADSHAW FIELD SUNNY     58  49  71 S10G16    30.36R
MK VISITOR CEN   N/A     57  12  17 E10         N/A
MAUNA KEA*       N/A     39  -9  12 E14         N/A
MAUNA LOA*       N/A     48 -17   6 MISG        N/A
MAUNA LOA 1*   NOT AVBL
PTA KIPUKA*      N/A    N/A N/A N/A SW3         N/A
PTA RANGE 17*    N/A     61  45  55 E10G21      N/A
PTA WEST*        N/A     77  55  47 SE7G23      N/A
NENE CABIN*      N/A    N/A N/A N/A E3G9        N/A
AHUMOA*          N/A     65  37  36 W3          N/A
PTA PORTABLE*  NOT AVBL
PUU MALI*      NOT AVBL
$$

HIC003-301900-
NORTHWEST ISLANDS-

CITY           SKY/WX    TMP DP  RH WIND       PRES   REMARKS
MIDWAY ISLAND  CLEAR     79  73  83 SE7       30.13R
MIDWAY NOS*      N/A     81 N/A N/A MISG      30.13R
FRENCH FRIGATE NOT AVBL
$$

PHZ110>124-180-301900-
BUOY REPORTS

STATION/POSITION TIME  TEMP    WIND        PRES    WAVE   SWELL
                       AIR SEA DIR/SP/G            HT/PER HT/DIR
                 (UTC) (F)     (DEG/KT/KT) (MB)    (FT/S) (FT/D)
BUOY 51001       NOT AVBL
BUOY 51101       1750   77 80  120/ 10/ 12 1019.9R   7/ 7   7/ 80
BUOY 51100       NOT AVBL
BUOY 51002       NOT AVBL
BUOY 51003       1750   81 82   90/ 12/ 14 1015.6R   6/ 8   5/ 50
BUOY 51004       1750   80 81   60/ 14/ 16 1015.8R   6/ 8   5/ 90
BARBERS PT BUOY  NOT AVBL
WAIMEA BAY BUOY  1804      80                N/A     5/ 8
KAILUA BAY BUOY  1804      81                N/A     7/ 8   2/ 90
LANAI BUOY       1815      82                N/A     2/15   2/200
BARBERS PT 2     NOT AVBL
PAUWELA MAUI     1809      80                N/A     6/ 8
HILO             1812      80                N/A     6/ 8   2/130
KANEOHE BAY BUOY 1806      80                N/A     7/ 8
HANALEI KAUAI    NOT AVBL
KAHULUI HARBOR   1800   79 80   40/ 10/ 13 1017.9R
HONOLULU HARBOR  1800   80 81   60/  6/  9 1018.6R
KILO NALU        NOT AVBL
HILO HARBOR      1800   76 79  240/  4/  7 1017.9R
MOKUOLOE         1700   79 81   80/ 10/ 15 1018.2R
NAWILIWILI       1800   78 83   60/ 16/ 18 1018.9R
WHOTS BUOY       NOT AVBL
BUOY 51028       NOT AVBL
$$

......................KEY........................................
  SKY/WX - SKY CONDITIONS/PRESENT WEATHER
  TMP    - TEMPERATURE IN FAHRENHEIT
  DWPT   - DEWPOINT IN FAHRENHEIT
  RH     - RELATIVE HUMIDITY IN PERCENT
  WIND   - DIRECTION AND SPEED /MPH FOR ISLANDS...KTS FOR BUOYS/
  PRES   - MEAN SEA LEVEL PRESSURE IN INCHES OF HG
  VSB    - VISIBILITY IN MILES
  HX     - HEAT INDEX
  WCI    - WIND CHILL INDEX
  VRB    - VARIABLE WIND DIRECTION
  N/A    - NOT AVAILABLE



USA.gov is the U.S. government's official web portal to all federal, state and local government web resources and services.